sat.trackr.live / text

‹ back to catalog

STARLINK-30264

NORAD 57534 · 2023-115P

PAYLOAD ACTIVE UNKNOWN

§ Identity

Operator
Country
US
Launch date
2023-08-08
Launch site
AFWTR
Launch vehicle
Mass (kg)
RCS (m²)

Purposes: comms

External: N2YO · Heavens-Above · Gunter

§ Orbital elements

Epoch: 2026-05-24T23:24:36.756288Z

Period
94.27 min
Inclination
43.0023°
Eccentricity
0.0001497
Mean motion
15.27580838 rev/d
Perigee alt
482.0 km
Apogee alt
484.1 km
Semi-major
6,861.2 km
B*
5.9594e-5
RAAN
138.0716°
Arg perigee
266.6555°
Mean anomaly
93.4126°
Rev number
15,702

§ Raw data

STARLINK-302641 57534U 23115P   26144.97542542  .00001378  00000+0  59594-4 0  99952 57534  43.0023 138.0716 0001497 266.6555  93.4126 15.27580838157027

JSON: /api/v1/satellites/57534 · /tle

For live sub-satellite position, see the globe view (requires WebGL).

§ Visibility from observer

Set your observer location to see the next 7 days of passes ≥ 10°. The values pass through the URL so the page stays shareable.

No JS? Fill the form by hand. The geolocation button needs JavaScript.